Time,TemperatureF,DewpointF,PressureIn,WindDirection,WindDirectionDegrees,WindSpeedMPH,WindSpeedGustMPH,Humidity,HourlyPrecipIn,Conditions,Clouds,dailyrainin,SoftwareType,DateUTC
2013-05-17 01:32:00,56.0,49.0,-100.00,South,170,2.0,-999.0,77,-99.99,,,-99.99,,2013-05-17 07:32:00,
2013-05-17 01:43:00,56.0,49.0,-100.00,South,170,2.0,-999.0,77,-99.99,,,-99.99,,2013-05-17 07:43:00,
2013-05-17 01:53:00,56.0,49.0,-100.00,South,170,2.0,-999.0,77,-99.99,,,-99.99,,2013-05-17 07:53:00,
2013-05-17 02:33:00,53.0,48.0,-100.00,NE,50,5.0,-999.0,82,-99.99,,,-99.99,,2013-05-17 08:33:00,
2013-05-17 02:42:00,53.0,48.0,-100.00,NE,50,5.0,-999.0,82,-99.99,,,-99.99,,2013-05-17 08:42:00,
2013-05-17 02:51:00,53.0,48.0,-100.00,NE,50,5.0,-999.0,82,-99.99,,,-99.99,,2013-05-17 08:51:00,
2013-05-17 03:33:00,53.0,49.0,-100.00,NE,40,6.0,-999.0,85,-99.99,,,-99.99,,2013-05-17 09:33:00,
2013-05-17 03:42:00,53.0,49.0,-100.00,NE,40,6.0,-999.0,85,-99.99,,,-99.99,,2013-05-17 09:42:00,
2013-05-17 03:53:00,53.0,49.0,-100.00,NE,40,6.0,-999.0,85,-99.99,,,-99.99,,2013-05-17 09:53:00,
2013-05-17 04:33:00,51.0,47.0,-100.00,NNE,30,3.0,-999.0,85,-99.99,,,-99.99,,2013-05-17 10:33:00,
2013-05-17 04:42:00,51.0,47.0,-100.00,NNE,30,3.0,-999.0,85,-99.99,,,-99.99,,2013-05-17 10:42:00,
2013-05-17 04:53:00,51.0,47.0,-100.00,NNE,30,3.0,-999.0,85,-99.99,,,-99.99,,2013-05-17 10:53:00,
2013-05-17 05:34:00,52.0,49.0,-100.00,ENE,70,1.0,-999.0,89,-99.99,,,-99.99,,2013-05-17 11:34:00,
2013-05-17 05:42:00,52.0,49.0,-100.00,ENE,70,1.0,-999.0,89,-99.99,,,-99.99,,2013-05-17 11:42:00,
2013-05-17 05:53:00,52.0,49.0,-100.00,ENE,70,1.0,-999.0,89,-99.99,,,-99.99,,2013-05-17 11:53:00,
2013-05-17 06:32:00,51.0,48.0,-100.00,SE,140,3.0,-999.0,89,-99.99,,,-99.99,,2013-05-17 12:32:00,
2013-05-17 06:43:00,51.0,48.0,-100.00,SE,140,3.0,-999.0,89,-99.99,,,-99.99,,2013-05-17 12:43:00,
2013-05-17 06:53:00,51.0,48.0,-100.00,SE,140,3.0,-999.0,89,-99.99,,,-99.99,,2013-05-17 12:53:00,
2013-05-17 07:33:00,51.0,48.0,-100.00,ENE,60,3.0,-999.0,89,-99.99,,,-99.99,,2013-05-17 13:33:00,
2013-05-17 07:42:00,51.0,48.0,-100.00,ENE,60,3.0,-999.0,89,-99.99,,,-99.99,,2013-05-17 13:42:00,
2013-05-17 07:52:00,51.0,48.0,-100.00,ENE,60,3.0,-999.0,89,-99.99,,,-99.99,,2013-05-17 13:52:00,
2013-05-17 08:34:00,52.0,48.0,-100.00,NE,40,3.0,-999.0,86,-99.99,,,-99.99,,2013-05-17 14:34:00,
2013-05-17 08:43:00,52.0,48.0,-100.00,NE,40,3.0,-999.0,86,-99.99,,,-99.99,,2013-05-17 14:43:00,
2013-05-17 08:53:00,52.0,48.0,-100.00,NE,40,3.0,-999.0,86,-99.99,,,-99.99,,2013-05-17 14:53:00,
2013-05-17 08:55:00,56.0,50.0,-100.00,NNE,30,3.0,-999.0,80,-99.99,,,-99.99,,2013-05-17 14:55:00,
2013-05-17 09:37:00,56.0,50.0,-100.00,NNE,30,3.0,-999.0,80,-99.99,,,-99.99,,2013-05-17 15:37:00,
2013-05-17 09:47:00,56.0,50.0,-100.00,NNE,30,3.0,-999.0,80,-99.99,,,-99.99,,2013-05-17 15:47:00,
2013-05-17 09:55:00,59.0,51.0,-100.00,NNE,30,3.0,-999.0,74,-99.99,,,-99.99,,2013-05-17 15:55:00,
2013-05-17 10:37:00,59.0,51.0,-100.00,NNE,30,3.0,-999.0,74,-99.99,,,-99.99,,2013-05-17 16:37:00,
2013-05-17 10:49:00,59.0,51.0,-100.00,NNE,30,3.0,-999.0,74,-99.99,,,-99.99,,2013-05-17 16:49:00,
2013-05-17 10:55:00,62.0,50.0,-100.00,NNE,30,8.0,-999.0,64,-99.99,,,-99.99,,2013-05-17 16:55:00,
2013-05-17 11:40:00,62.0,-99.9,-100.00,NNE,30,8.0,-999.0,64,-99.99,,,-99.99,,2013-05-17 17:40:00,
2013-05-17 11:49:00,62.0,50.0,-100.00,NNE,30,8.0,-999.0,64,-99.99,,,-99.99,,2013-05-17 17:49:00,
2013-05-17 11:55:00,62.0,49.0,-100.00,NE,40,9.0,-999.0,62,-99.99,,,-99.99,,2013-05-17 17:55:00,
2013-05-17 12:40:00,62.0,-99.9,-100.00,NE,40,9.0,-999.0,62,-99.99,,,-99.99,,2013-05-17 18:40:00,
2013-05-17 12:50:00,-999.0,-99.9,-100.00,NE,40,9.0,-999.0,62,-99.99,,,-99.99,,2013-05-17 18:50:00,
2013-05-17 12:55:00,67.0,-99.9,-100.00,NE,40,7.0,-999.0,56,-99.99,,,-99.99,,2013-05-17 18:55:00,
2013-05-17 13:40:00,67.0,51.0,-100.00,NE,40,7.0,-999.0,56,-99.99,,,-99.99,,2013-05-17 19:40:00,
2013-05-17 13:50:00,67.0,51.0,-100.00,NE,40,7.0,-999.0,56,-99.99,,,-99.99,,2013-05-17 19:50:00,
2013-05-17 13:55:00,66.0,48.0,-100.00,NE,40,5.0,-999.0,52,-99.99,,,-99.99,,2013-05-17 19:55:00,
2013-05-17 14:40:00,66.0,48.0,-100.00,NE,40,5.0,-999.0,52,-99.99,,,-99.99,,2013-05-17 20:40:00,
2013-05-17 14:50:00,66.0,48.0,-100.00,NE,40,5.0,-999.0,52,-99.99,,,-99.99,,2013-05-17 20:50:00,
2013-05-17 14:55:00,67.0,48.0,-100.00,NNE,30,6.0,-999.0,50,-99.99,,,-99.99,,2013-05-17 20:55:00,
2013-05-17 15:39:00,67.0,48.0,-100.00,NNE,30,6.0,-999.0,50,-99.99,,,-99.99,,2013-05-17 21:39:00,
2013-05-17 15:49:00,67.0,48.0,-100.00,NNE,30,6.0,-999.0,50,-99.99,,,-99.99,,2013-05-17 21:49:00,
2013-05-17 16:38:00,67.0,49.0,-100.00,NE,50,3.0,-999.0,52,-99.99,,,-99.99,,2013-05-17 22:38:00,
2013-05-17 16:47:00,67.0,49.0,-100.00,NE,50,3.0,-999.0,52,-99.99,,,-99.99,,2013-05-17 22:47:00,
2013-05-17 16:54:00,67.0,49.0,-100.00,NE,50,3.0,-999.0,52,-99.99,,,-99.99,,2013-05-17 22:54:00,
2013-05-17 17:37:00,71.0,47.0,-100.00,NE,50,3.0,-999.0,42,-99.99,,,-99.99,,2013-05-17 23:37:00,
2013-05-17 17:47:00,71.0,47.0,-100.00,NE,50,3.0,-999.0,42,-99.99,,,-99.99,,2013-05-17 23:47:00,
2013-05-17 17:54:00,71.0,47.0,-100.00,NE,50,3.0,-999.0,42,-99.99,,,-99.99,,2013-05-17 23:54:00,
2013-05-17 18:33:00,68.0,46.0,-100.00,ENE,60,5.0,-999.0,45,-99.99,,,-99.99,,2013-05-18 00:33:00,
2013-05-17 18:44:00,68.0,46.0,-100.00,ENE,60,5.0,-999.0,45,-99.99,,,-99.99,,2013-05-18 00:44:00,
2013-05-17 18:54:00,68.0,46.0,-100.00,ENE,60,5.0,-999.0,45,-99.99,,,-99.99,,2013-05-18 00:54:00,
2013-05-17 19:32:00,66.0,47.0,-100.00,NE,40,3.0,-999.0,50,-99.99,,,-99.99,,2013-05-18 01:32:00,
2013-05-17 19:43:00,66.0,47.0,-100.00,NE,40,3.0,-999.0,50,-99.99,,,-99.99,,2013-05-18 01:43:00,
2013-05-17 19:52:00,66.0,47.0,-100.00,NE,40,3.0,-999.0,50,-99.99,,,-99.99,,2013-05-18 01:52:00,
2013-05-17 20:31:00,65.0,46.0,-100.00,ENE,70,2.0,-999.0,50,-99.99,,,-99.99,,2013-05-18 02:31:00,
2013-05-17 20:42:00,65.0,46.0,-100.00,ENE,70,2.0,-999.0,50,-99.99,,,-99.99,,2013-05-18 02:42:00,
2013-05-17 20:53:00,65.0,46.0,-100.00,ENE,70,2.0,-999.0,50,-99.99,,,-99.99,,2013-05-18 02:53:00,
2013-05-17 21:33:00,60.0,48.0,-100.00,NNE,30,6.0,-999.0,64,-99.99,,,-99.99,,2013-05-18 03:33:00,
2013-05-17 21:43:00,60.0,48.0,-100.00,NNE,30,6.0,-999.0,64,-99.99,,,-99.99,,2013-05-18 03:43:00,
2013-05-17 21:53:00,60.0,48.0,-100.00,NNE,30,6.0,-999.0,64,-99.99,,,-99.99,,2013-05-18 03:53:00,
2013-05-17 22:33:00,59.0,47.0,-100.00,North,350,5.0,-999.0,64,-99.99,,,-99.99,,2013-05-18 04:33:00,
2013-05-17 22:42:00,59.0,47.0,-100.00,North,350,5.0,-999.0,64,-99.99,,,-99.99,,2013-05-18 04:42:00,
2013-05-17 22:52:00,59.0,47.0,-100.00,North,350,5.0,-999.0,64,-99.99,,,-99.99,,2013-05-18 04:52:00,
2013-05-17 23:32:00,60.0,48.0,-100.00,North,350,3.0,-999.0,64,-99.99,,,-99.99,,2013-05-18 05:32:00,
2013-05-17 23:42:00,60.0,48.0,-100.00,North,350,3.0,-999.0,64,-99.99,,,-99.99,,2013-05-18 05:42:00,
2013-05-17 23:52:00,60.0,48.0,-100.00,North,350,3.0,-999.0,64,-99.99,,,-99.99,,2013-05-18 05:52:00,